#timestamp,LO_Frequency,Hit,StdDev 
1601503215.6,286047002.2,N
1601503235.5,286046999.9,N
1601503255.3,286047000.1,N
1601503275.2,286047000.4,N
1601503295.9,286046999.7,N
1601503315.7,286047003.3,N
1601503335.6,286047003.6,N
1601503355.4,286047003.1,N
1601503375.2,286047004.1,N
1601503395.1,286047003.4,N
1601503396.0,286047003.4,N
1601503415.8,286047003.6,N
1601503435.7,286047000.0,N
1601503455.5,286047000.8,N
1601503475.3,286046998.1,N
1601503495.2,286047000.8,N
1601503515.0,286047000.6,N
1601503515.9,286047000.6,N
1601503535.8,286046999.3,N
1601503555.6,286047000.3,N
1601503575.4,286046998.2,N
1601503595.3,286046997.1,N
1601503615.1,286046995.7,N
1601503635.9,286046995.6,N
1601503655.7,286046997.1,N
1601503675.5,286047001.0,N
1601503695.4,286047001.0,N
1601503715.2,286046998.7,N
1601503735.0,286047000.9,N
1601503735.9,286047000.9,N
1601503755.8,286046997.5,N
1601503775.6,286046997.4,N
1601503795.5,286047000.1,N
1601503815.3,286047000.4,N
1601503835.1,286047002.4,N
1601503855.9,286047001.4,N
1601503875.7,286047001.1,N
1601503895.5,286047000.1,N
1601503915.4,286047003.7,N
1601503935.2,286047001.7,N
1601503955.1,286047000.1,N
1601503956.0,286047000.1,N
1601503975.8,286047002.4,N
1601503995.6,286047003.9,N
1601504015.5,286047004.0,N
1601504035.3,286047004.3,N
1601504055.2,286047000.9,N
1601504075.9,286046998.9,N
1601504095.7,286046998.1,N
1601504115.6,286047000.8,N
1601504135.4,286047002.4,N
1601504155.2,286047000.6,N
1601504175.1,286047002.0,N
1601504176.0,286047002.0,N
1601504195.8,286047002.5,N
1601504215.7,286047005.8,Y
1601504235.5,286047003.1,P
1601504255.3,286047004.0,P
1601504275.2,286047001.9,N
1601504295.0,286047001.7,N
1601504295.9,286047001.7,N
1601504315.7,286047001.3,N
1601504335.6,286047001.4,N
1601504355.4,286047001.7,N
1601504375.3,286047002.2,N
1601504395.1,286047002.2,N
1601504415.8,286047003.8,Y
1601504435.7,286046999.8,P
1601504455.5,286046999.8,N
1601504475.4,286047000.6,N
1601504495.2,286046996.6,Y
1601504515.0,286046997.1,P
1601504515.9,286046997.1,N
1601504535.8,286047001.2,N
1601504555.6,286046995.4,N
1601504575.5,286046996.3,N
1601504595.3,286046996.4,N
1601504615.1,286046993.5,Y
1601504635.9,286046998.4,P
1601504655.7,286046998.1,P
1601504675.5,286046997.1,P
1601504695.4,286046999.7,N
1601504715.2,286047002.6,N
1601504735.1,286047000.4,N
1601504736.0,286047000.4,N
1601504755.8,286047000.1,N
1601504775.6,286047001.6,N
1601504795.5,286047000.2,N
1601504815.3,286046998.5,N
1601504835.2,286047000.0,N
1601504855.9,286047001.6,N
1601504875.7,286047005.4,Y
1601504895.6,286047006.0,P
1601504915.4,286047001.5,N
1601504935.2,286047004.1,N
1601504955.1,286047002.9,N
1601504956.0,286047002.9,N
1601504975.8,286047007.2,Y
1601504995.7,286047000.9,P
1601505015.5,286047001.0,N
1601505035.3,286046998.1,N
1601505055.2,286047000.8,N
1601505075.0,286046998.5,N
1601505075.9,286046998.5,N
1601505095.8,286046998.6,N
1601505115.6,286046998.8,N
1601505135.4,286047001.1,N
1601505155.3,286046998.1,N
1601505175.1,286046999.0,N
1601505195.9,286047000.6,N
1601505215.7,286046998.5,N
1601505235.5,286046998.3,N
1601505255.4,286046996.6,N
1601505275.2,286047001.2,N
1601505295.0,286046998.6,N
1601505296.0,286046998.6,N
1601505315.8,286047000.7,N
1601505335.6,286047002.4,N
1601505355.5,286047001.3,N
1601505375.3,286047000.5,N
1601505395.1,286047000.6,N
1601505415.9,286047002.1,N
1601505435.7,286046999.0,N
1601505455.6,286046998.7,N
1601505475.4,286046998.7,N
1601505495.2,286046998.1,N
1601505515.1,286046997.3,N
1601505516.0,286046997.3,N
1601505535.8,286046998.8,N
1601505555.6,286046998.5,N
1601505575.5,286046998.8,N
1601505595.3,286047001.2,N
1601505615.2,286047001.2,N
1601505635.9,286046997.6,N
1601505655.7,286046995.6,N
1601505675.6,286046996.1,N
1601505695.4,286046993.6,Y
1601505715.3,286046994.1,P
1601505735.1,286046991.9,P
1601505736.0,286046991.9,N
1601505755.8,286046995.9,N
1601505775.7,286046999.1,N
1601505795.5,286047000.1,N
1601505815.3,286046999.0,N
1601505835.2,286046997.2,N
1601505855.0,286046997.8,N
1601505855.9,286046997.8,N
1601505875.8,286046998.7,N
1601505895.6,286047001.1,N
1601505915.4,286046998.3,N
1601505935.3,286046996.6,N
1601505955.1,286046998.0,N
1601505975.9,286046998.4,N
1601505995.7,286047000.7,N
1601506015.5,286047002.5,N
1601506035.4,286047003.2,N
1601506055.2,286047000.3,N
1601506075.0,286046998.3,N
1601506076.0,286046998.3,N
1601506095.8,286047000.3,N
1601506115.6,286046999.0,N
1601506135.5,286046999.3,N
1601506155.3,286046996.5,N
1601506175.1,286046998.5,N
1601506195.9,286046996.5,N
1601506215.7,286046996.8,N
1601506235.6,286046995.0,N
1601506255.4,286046993.3,N
1601506275.2,286046997.5,N
1601506295.1,286047001.1,N
1601506296.0,286047001.1,N
1601506315.8,286047001.1,N
1601506335.6,286046998.5,N
1601506355.5,286046997.8,N
1601506375.3,286046999.4,N
1601506395.2,286046999.1,N
1601506415.9,286046993.8,N
1601506435.7,286046994.9,N
1601506455.6,286046997.8,N
1601506475.4,286046998.2,N
1601506495.2,286047000.0,N
1601506515.1,286046997.7,N
1601506516.0,286046997.7,N
1601506535.8,286046999.2,N
1601506555.7,286046997.9,N
1601506575.5,286046993.6,N
1601506595.3,286046997.7,N
1601506615.2,286046994.9,N
1601506635.0,286047001.2,N
1601506635.9,286047001.2,N
1601506655.8,286046999.9,N
1601506675.6,286046997.4,N
1601506695.4,286046997.7,N
1601506715.3,286046998.2,N
1601506735.1,286046993.4,N
1601506755.8,286046995.2,N
1601506775.7,286046995.6,N
1601506795.5,286046995.8,N
